Flag Weather past 2 weeks in Ansbach, Bavaria, Germany

Now
36 °F

Overcast.


Feels Like: 29 °F
Forecast: 31 / 39 °F
Wind: 9 mph from East

Location: Ansbach / Katterbach

Current Time: Nov 25, 2014 at 9:58:19 PM

Latest Report: Nov 25, 2014 at 8:58 PM


Visibility: N/A

Pressure: 30.27 "Hg

Humidity: 100%

Dew point: 36 °F

Location of AnsbachLocation

Historic Weather in Ansbach — Graph

°F

Ansbach temperature yesterday

Maximum temperature yesterday: 45 °F (at 12:58 PM)
Minimum temperature yesterday: 37 °F (at 12:58 AM)
Average temperature yesterday: 40 °F

Past Weeks' High & Low Weather Summary

 TemperatureHumidityPressure
High50 °F (Nov 15, 1:58 PM)100% (Nov 10, 8:58 PM)30.38 "Hg (Nov 10, 8:58 PM)
Low32 °F (Nov 23, 7:58 AM)81% (Nov 21, 1:58 PM)29.49 "Hg (Nov 16, 3:59 AM)
Average41 °F100%30.01 "Hg
* Reported Nov 10 8:58 PM — Nov 25 8:58 PM, Ansbach, Weather by CustomWeather, © 2014

Note: Actual official high and low records may vary slightly from our data, if they occured in-between our weather recording intervals... More about our weather records

Advertising

Ansbach weather history for previous 24 hours

 ConditionsComfort  
Time TempWeatherWind HumidityBarometerVisibility
8:58 PM
Nov 25
36 °FOvercast.9 mph100%30.27 "HgN/A
7:58 PM37 °FOvercast.9 mph100%30.27 "HgN/A
6:58 PM39 °FOvercast.7 mph100%30.27 "HgN/A
5:58 PM39 °FOvercast.6 mph100%30.27 "HgN/A
4:58 PM41 °FOvercast.6 mph100%30.28 "HgN/A
3:58 PM41 °FOvercast.9 mph100%30.29 "HgN/A
2:58 PM41 °FLow clouds.8 mph100%30.28 "HgN/A
1:58 PM41 °FLow clouds.10 mph100%30.29 "HgN/A
12:58 PM42 °FLow clouds.8 mph100%30.30 "HgN/A
11:58 AM41 °FFog.6 mph100%30.32 "Hg6 mi
11:57 AM41 °FFog.6 mph100%30.24 "Hg6 mi
10:58 AM40 °FFog.5 mph100%30.33 "Hg4 mi
9:58 AM39 °FFog.3 mph100%30.34 "Hg1 mi
8:58 AM37 °FFog.2 mph100%30.35 "Hg1 mi
8:03 AM37 °FFog.3 mph100%30.26 "Hg1 mi
7:01 AM37 °FFog.6 mph100%30.26 "Hg1 mi
6:00 AM37 °FFog.7 mph100%30.27 "Hg1 mi
4:58 AM38 °FFog.2 mph100%30.35 "Hg1 mi
4:04 AM37 °FFog.7 mph100%30.27 "Hg2 mi
3:58 AM38 °FFog.6 mph100%30.35 "Hg2 mi
3:04 AM39 °FFog.6 mph100%30.28 "Hg4 mi
2:59 AM39 °FFog.6 mph100%30.28 "Hg4 mi
1:58 AM41 °FFog.8 mph100%30.36 "Hg6 mi
12:58 AM40 °FOvercast.9 mph100%30.36 "HgN/A
11:58 PM
Nov 24
41 °FOvercast.7 mph100%30.37 "HgN/A
11:03 PM41 °FLow clouds.3 mph100%30.30 "HgN/A
9:58 PM42 °FOvercast.No wind100%30.37 "HgN/A
Weather by CustomWeather, © 2014

See weather overviewHow to use our weather pages